Regional Weather Roundup
Issued by NWS

Home | Current Version | Previous Version | Graphics & Text | Print | Product List | Glossary On
Versions: 1 2 3 4 5 6 7 8 9 10 11 12 13 14 15 16 17 18 19 20 21 22 23 24 25 26 27 28 29 30 31 32 33 34 35 36 37 38 39 40 41 42 43 44 45 46 47 48 49 50
530
ASUS43 KMKX 210711
RWRWI

WISCONSIN REGIONAL WEATHER ROUNDUP
NATIONAL WEATHER SERVICE MILWAUKEE/SULLIVAN WI
100 AM CST TUE NOV 21 2017

NOTE: "FAIR" INDICATES FEW OR NO CLOUDS BELOW 12,000 FEET WITH NO
SIGNIFICANT WEATHER AND/OR OBSTRUCTIONS TO VISIBILITY.

WIZ001-002-006>008-014>016-023>028-210800-
NORTHWEST WISCONSIN

CITY           SKY/WX    TMP DP  RH WIND       PRES   REMARKS
SUPERIOR ARPT  CLEAR     36  21  55 W21G30    29.40R WCI  24
ASHLAND        CLOUDY    39  28  64 W15G25    29.34R WCI  31
HAYWARD        CLOUDY    39  27  62 W13G23    29.39R WCI  31
SIREN          CLOUDY    37  25  62 W20G30    29.48R WCI  26
CUMBERLAND     CLOUDY    36  27  69 W22G30    29.45R WCI  24
RICE LAKE      CLOUDY    39  28  63 W16       29.47R WCI  30
CHETEK         CLOUDY    40  28  61 W12G23    29.45R WCI  33
LADYSMITH      CLEAR     38  28  67 W10       29.42S WCI  31
EAU CLAIRE     CLEAR     38  27  64 SW9       29.47S WCI  31
MENOMONIE      CLEAR     42  27  55 W14G21    29.49R
NEW RICHMOND   CLOUDY    38  25  57 W23G29    29.50S WCI  28
OSCEOLA        CLOUDY    39  27  62 W10G25    29.55R WCI  32
$$

WIZ003>005-009-010-017-018-210800-
NORTH CENTRAL WISCONSIN

CITY           SKY/WX    TMP DP  RH WIND       PRES   REMARKS
MANITOWISH WTR PTCLDY    35  29  79 W7        29.31S WCI  29
ARBOR VITAE    CLOUDY    39  31  71 W13       29.31F WCI  31
WOODRUFF       CLOUDY    39  31  71 W13       29.31F WCI  31
RHINELANDER    CLOUDY    39  28  64 W16G25    29.34F WCI  30
EAGLE RIVER    CLOUDY    37  27  66 W12G17    29.31R WCI  29
LAND O LAKES   CLOUDY    38  28  68 W9G18     29.31R WCI  32
PHILLIPS       CLOUDY    35  28  74 SW7       29.35F WCI  29
TOMAHAWK       CLOUDY    38  27  62 W8        29.37S WCI  33
MEDFORD        CLEAR     38  27  66 W13G20    29.40S WCI  30
MERRILL        CLEAR     40  28  63 W12G17    29.40S WCI  32
$$

WIZ029-030-035-036-043>047-210800-
CENTRAL WISCONSIN

CITY           SKY/WX    TMP DP  RH WIND       PRES   REMARKS
WAUSAU         CLEAR     40  28  62 SW13      29.40F WCI  32
MOSINEE        CLEAR     39  28  65 SW12G20   29.43S WCI  32
MARSHFIELD     CLEAR     40  27  59 W13       29.43S WCI  32
STEVENS POINT  CLEAR     42  27  55 SW10      29.44S
WAUPACA        CLEAR     46  29  51 SW10      29.46S
WAUTOMA        PTCLDY    46  28  49 SW8       29.49R
WISC RAPIDS    CLEAR     43  28  55 W9        29.47S
CAMP DOUGLAS   PTCLDY   N/A N/A N/A SW13      29.51S
$$

WIZ011>013-019>022-031-037>040-048>050-210800-
NORTHEAST WISCONSIN

CITY           SKY/WX    TMP DP  RH WIND       PRES   REMARKS
ANTIGO         CLOUDY    37  28  70 SW13      29.38S WCI  29
SHAWANO        CLEAR     47  29  50 SW10G16   29.41S
OCONTO         CLEAR     44  30  57 SW9       29.41S
STURGEON BAY   PTCLDY    47  32  56 SW15G23   29.41S
GREEN BAY      CLEAR     43  33  68 SW9       29.44S
MANITOWOC      CLEAR     49  31  49 SW18G25   29.46S
APPLETON       CLEAR     43  28  56 SW13G20   29.45S
CLINTONVILLE   CLEAR     45  28  53 SW10      29.43S
OSHKOSH        CLEAR     43  32  65 S10       29.48R
$$

WIZ032>034-041-042-053>061-210800-
SOUTHWEST WISCONSIN

CITY           SKY/WX    TMP DP  RH WIND       PRES   REMARKS
LA CROSSE      CLEAR     43  28  55 SW8       29.55R
SPARTA         CLEAR     42  30  62 CALM      29.52F
VIROQUA        CLEAR     40  31  68 SW9       29.55R WCI  34
BOSCOBEL       MOCLDY    45  30  55 SW5       29.58R
PRAIRIE DU CHI PTCLDY    45  28  52 NW3       29.59R
PLATTEVILLE    MOCLDY    43  33  67 SW8       29.60S
$$

WIZ056-057-062-063-064-067-068-210800-
SOUTH CENTRAL WISCONSIN

CITY           SKY/WX    TMP DP  RH WIND       PRES   REMARKS
REEDSBURG      CLOUDY    45  30  55 SW3       29.53S
BARABOO/DELLS  CLOUDY    45  29  53 SW6       29.52S
LONE ROCK      MOCLDY    46  32  58 W8        29.57R
MINERAL POINT  CLEAR     45  32  61 SW10      29.57S
MADISON        CLEAR     47  32  56 SW8G20    29.55S
MIDDLETON      CLEAR     47  31  54 SW13G21   29.56R
WATERTOWN      CLEAR     44  32  63 SW14G20   29.54S
MONROE         PTCLDY    45  32  61 SW17G24   29.58S
JANESVILLE     PTCLDY    45  32  61 SW14      29.58F
$$

WIZ051-052-058>065-066-070>072-210800-
SOUTHEAST WISCONSIN

CITY           SKY/WX    TMP DP  RH WIND       PRES   REMARKS
MILWAUKEE      PTCLDY    45  32  60 SW17      29.57F
WAUKESHA       CLEAR     41  30  65 SW10      29.57S
MILWAUKEE/TIMM CLOUDY    43  30  61 SW14G24   29.56F
RACINE         CLOUDY    46  31  55 SW16G31   29.60S
BURLINGTON     CLOUDY    44  36  73 SW20G26   29.59F
KENOSHA        CLOUDY    46  30  53 SW15G36   29.60F
FOND DU LAC    CLEAR     44  30  57 SW13      29.50R
SHEBOYGAN      CLEAR     48  32  53 SW18G29   29.49S
WEST BEND      CLEAR     46  30  53 SW16G29   29.51F
JUNEAU         CLEAR     41  32  69 SW13      29.55R
$$

LSZ147-162-210800-
LAKE SUPERIOR

STATION/POSITION TIME  TEMP    WIND        PRES    WAVE
                       AIR SEA DIR/SP/G            HT/PER
                 (UTC) (F)     (DEG/KT/KT) (MB)    (FT/S)
DEVILS ISLAND    0700   40     260/ 34/ 39  991.9R
SAXON HARBOR     0640   42     230/  8/ 14  992.9R
$$

LMZ867-665-643>646-210800-
LAKE MICHIGAN

STATION/POSITION TIME  TEMP    WIND        PRES    WAVE
                       AIR SEA DIR/SP/G            HT/PER
                 (UTC) (F)     (DEG/KT/KT) (MB)    (FT/S)
N MID LAKE BUOY  0650   49 48  210/ 25/ 31  994.4F  12/ 8
NORTHPORT PIER   0640   49     230/ 10/ 19  994.6S
KEWAUNEE LAKESHO 0642   49     240/ 12/ 20  996.3S
SHEBOYGAN LAKESH 0700   50     240/ 19/ 22  998.7F
PORT WASHINGTON  0630   48     240/  8/ 16 1000.7F
MILWAUKEE LAKESH 0650   47     230/ 20/ 25   N/A
S MID LAKE BUOY  0650   47 48  230/ 27/ 31 1002.7F   9/ 7
KENOSHA   LAKESH 0700   48     220/ 16/ 24 1002.7
$$

TC  - TEMPERATURE IN CELSIUS
VSB - VISIBILITY IN STATUTE MILES
WCI - WIND CHILL INDEX
HX  - HEAT INDEX





USA.gov is the U.S. government's official web portal to all federal, state and local government web resources and services.